Home   Weather   Chengdu   Past weeks
Flag for China

Past Weather in Chengdu, Sichuan, China — Yesterday and Last 2 Weeks

Now
86 °F

Passing clouds.


Feels Like: 85 °F
Forecast: 83 / 70 °F
Wind: 3 mph from Southeast

Location: Chengdu Airport

Current Time: May 23, 2019 at 7:03:46 pm

Latest Report: May 23, 2019 at 6:00 pm


Visibility: N/A

Pressure: 29.71 "Hg

Humidity: 40%

Dew Point: 59 °F

Location of ChengduLocation

Past Weather in Chengdu — Graph

°F

Chengdu Temperature Yesterday

Maximum temperature yesterday: 81 °F (at 3:00 pm)
Minimum temperature yesterday: 66 °F (at 6:00 am)
Average temperature yesterday: 73 °F

High & Low Weather Summary for the Past Weeks

 TemperatureHumidityPressure
High88 °F (May 23, 4:00 pm)100% (May 9, 1:00 am)30.15 "Hg (May 9, 1:00 am)
Low57 °F (May 9, 4:00 am)35% (May 23, 4:00 pm)29.59 "Hg (May 17, 5:00 pm)
Average72 °F75%29.87 "Hg
* Reported May 8 6:00 pm — May 23 6:00 pm, Chengdu. Weather by CustomWeather, © 2019

Note: Actual official high and low records may vary slightly from our data, if they occured in-between our weather recording intervals... More about our weather records

Advertising

Chengdu Weather History for the Previous 24 Hours

Scroll right to see more
 ConditionsComfort  
Time TempWeatherWind HumidityBarometerVisibility
6:00 pm
Thu, May 23
86 °FPassing clouds.3 mph40%29.71 "HgN/A
5:00 pm86 °FScattered clouds.6 mph40%29.74 "HgN/A
4:00 pm88 °FScattered clouds.1 mph35%29.74 "HgN/A
3:00 pm86 °FScattered clouds.3 mph40%29.77 "HgN/A
2:00 pm84 °FScattered clouds.3 mph45%29.80 "HgN/A
1:00 pm84 °FScattered clouds.1 mph51%29.86 "HgN/A
12:00 pm82 °FScattered clouds.No wind55%29.89 "HgN/A
11:00 am79 °FPassing clouds.1 mph61%29.89 "HgN/A
10:00 am77 °FPassing clouds.No wind61%29.92 "HgN/A
9:00 am75 °FSunny.No wind69%29.92 "Hg10 mi
8:00 am72 °FClear.No wind83%29.89 "Hg5 mi
7:00 am68 °FClear.No wind94%29.89 "Hg4 mi
6:00 am68 °FPassing clouds.No wind88%29.86 "Hg4 mi
5:00 am68 °FPassing clouds.No wind88%29.86 "Hg4 mi
4:00 am68 °FClear.1 mph88%29.86 "Hg5 mi
3:00 am68 °FClear.No wind88%29.89 "Hg5 mi
2:00 am66 °FClear.No wind94%29.89 "Hg5 mi
1:00 am68 °FClear.No wind83%29.92 "Hg10 mi
12:00 am70 °FClear.No wind78%29.92 "Hg10 mi
11:00 pm
Wed, May 22
70 °FClear.1 mph78%29.92 "Hg10 mi
10:00 pm72 °FPassing clouds.3 mph73%29.92 "HgN/A
9:00 pm73 °FClear.1 mph74%29.89 "Hg10 mi
8:00 pm75 °FPassing clouds.3 mph65%29.89 "HgN/A
7:00 pm77 °FSunny.3 mph61%29.86 "Hg10 mi
Weather by CustomWeather, © 2019

See weather overview